Regional Weather Roundup
Issued by NWS Kansas City/Pleasant Hill, MO

Home | Current Version | Previous Version | Graphics & Text | Print | Product List | Glossary Off
Versions: 1 2 3 4 5 6 7 8 9 10 11 12 13 14 15 16 17 18 19 20 21 22 23 24 25 26 27 28 29 30 31 32 33 34 35 36 37 38 39 40 41 42 43 44 45 46 47 48 49 50

000
ASUS43 KEAX 162111
RWREAX

WEATHER ROUNDUP FOR EASTERN KANSAS AND NORTHWEST MISSOURI
NATIONAL WEATHER SERVICE KANSAS CITY/PLEASANT HILL MO
400 PM CDT TUE SEP 16 2014

KSZ040-057-103>105-MOZ028-029-037-043-162200-
...KANSAS CITY METROPOLITAN AREA...

CITY           SKY/WX    TMP DP  RH WIND       PRES   REMARKS
K.C. INTL      SUNNY     69  50  50 S6        30.10F
K.C. DOWNTOWN  SUNNY     72  50  45 CALM      30.09F
LEES SUMMIT    SUNNY     70  52  52 CALM      30.10F
OLATHE - IXD   SUNNY     71  52  50 S6        30.10F
OLATHE - OJC   SUNNY     70  53  54 SE5       30.09F
LAWRENCE       SUNNY     72  50  45 SE5       30.09F

$$

MOZ001>008-011>017-020>025-030>033-038>040-044>046-053-054-162200-
...NORTHERN AND CENTRAL MISSOURI...

CITY           SKY/WX    TMP DP  RH WIND       PRES   REMARKS
ST. JOSEPH     SUNNY     69  52  54 SE7       30.09F
MOSBY          CLEAR     70  50  49 CALM      30.09F
WARRENSBURG    SUNNY     70  52  52 E3        30.10F
WHITEMAN AFB   MOSUNNY   70  55  59 VRB3      30.10F
CLINTON        SUNNY     72  57  60 CALM      30.12F
SEDALIA        MOSUNNY   71  54  54 CALM      30.12F
WARSAW         NOT AVBL
MARSHALL       SUNNY     73  55  53 E8        30.11F
CHILLICOTHE      N/A     69  50  50 E6        30.12F
MOBERLY        SUNNY     72  48  43 CALM      30.13F
KIRKSVILLE     SUNNY     67  47  48 VRB3      30.14F

$$

MOZ041-047>049-056>058-063>065-088>090-097-162200-
...EASTERN AND SOUTHERN MISSOURI...

CITY           SKY/WX    TMP DP  RH WIND       PRES   REMARKS
ST. LOUIS INTL PTSUNNY   64  52  63 CALM      30.13F
SPIRIT OF STL  PTSUNNY   65  53  65 E3        30.12F
COLUMBIA       SUNNY     71  52  50 NW3       30.12F
JEFFERSON CITY SUNNY     70  52  52 VRB3      30.11F
MEXICO         SUNNY     72  57  60 E3        30.12F
HANNIBAL       SUNNY     70  46  43 SW3       30.12F
ROLLA          MOSUNNY   66  54  65 CALM      30.11F HAZE
LEBANON        CLOUDY    68  59  73 NE3       30.13F
OSAGE BEACH    PTSUNNY   66  55  68 S3        30.12F
SPRINGFIELD    CLOUDY    73  60  63 SE3       30.10F
BRANSON        CLOUDY    72  63  73 SE5       30.13S
NEVADA         CLOUDY    70  59  68 E6        30.12F
JOPLIN         CLOUDY    74  64  71 CALM      30.09F
WEST PLAINS    CLOUDY    68  57  68 NE6       30.13F

$$

IAZ060-094-KSZ022-034>040-054-083-096-NEZ052-066-093-162200-
...KANSAS...SOUTHEAST NEBRASKA AND IOWA...

CITY           SKY/WX    TMP DP  RH WIND       PRES   REMARKS
TOPEKA         SUNNY     72  50  45 SE5       30.08F
MANHATTAN      CLOUDY    74  50  42 CALM      30.06F
EMPORIA        SUNNY     74  52  46 VRB6      30.08F
CHANUTE        SUNNY     76  62  62 SE8       30.08F
WICHITA        SUNNY     79  60  52 VRB7      30.06F
OMAHA          MOSUNNY   68  49  50 S10       30.08F
LINCOLN        SUNNY     71  46  40 S8        30.07F
FALLS CITY     SUNNY     71  51  49 CALM      30.08F
LAMONI         SUNNY     65  47  52 S5        30.11F
DES MOINES     SUNNY     67  47  48 S8        30.10F

$$



USA.gov is the U.S. government's official web portal to all federal, state and local government web resources and services.